Japanese version Home page |
Updated on November 18, 2007 |
Profile
|
Orbital ElementsEpoch = 1993 Aug. 1.0 TT T = 1993 Aug. 17.2819 TT Peri. = 295.9191 e = 0.308106 Node = 116.0169 2000.0 q = 4.082327 AU Incl. = 19.8756 a = 5.900222 AU n = 0.0687704 P = 14.33 years
|
Finding Charts |
Magnitudes Graphm1 = 3.0 + 5 log d + 20.0 log r
|
The orbital elements are calculated by Dr. Brian G. Marsden and printed on
IAUC 8764.
|